STARLINK-1307, 45397

Orbit data source: Space-Track

STARLINK-1307, 45397 is a payload satellite owned by SpaceX/Seattle (US) in LEO that was launched on Wed, 18 Mar 2020 UTC via an FALCON 9 launch vehicle from the Air Force Eastern Test Range (AFETR). Payload-class satellites include a variety of spacecraft equipped with specific instruments for various scientific and technological missions. These include communications satellites like Starlink; space stations such as the ISS; scientific satellites like the Hubble; Earth observation satellites from companies like Planet Labs, Umbra, and HawkEye 360; GPS; miniature CubeSats for education and research; and military/defense satellites.

Loading next visibility...
Identifier
45397, 2020-019AP
Orbit
LEO
Country
Flag of USUS
Related business
Manufacturer
SpaceX/Seattle
Mission
Partially operational Commercial Communications
Bus & Motor
STARLINK, Unknown motor
Mass
260 kg wet, ~248 kg dry
Launch date (UTC)
2020-03-18 (6 years ago)
Launch vehicle
FALCON 9
Launch site
Air Force Eastern Test Range (AFETR)
Object type
Payload
Rocket body
Debris
Shape & HBR
Box + 1 Pan, 10.1 m
Radar Cross Section
13.562 m², Large (>1 m²)

Expand to show TLE details & history
Last TLE update: 6 days ago

TLE from 6 days ago
0 STARLINK-1307
1 45397U 20019AP  26155.02619845  .00069020  00000-0  95783-3 0  9996
2 45397  53.0525  74.3928 0002441  81.0600 279.0687 15.56424642343478
Epoch: 2026-06-04T00:37Z
TLE epoch observation values (Epoch: 2026-06-04T00:37:43.546Z)
Latitude
Longitude
172.48498°
Altitude
398.652 km
Speed
7.673 km/s
True Right ascension
04h 57m 34s
True Declination
0° 00' 00"
Sunlit
Object was in daylight at epoch
Visualization orbit readout
Latitude
Unknown
Longitude
Unknown
Altitude
Unknown
Speed
Unknown
Apparent Right ascension
Unknown
Apparent Declination
Unknown
Sunlit
N/A
Visualization observer readout
Local Sidereal Time
13:11:04
Azimuth
Unknown
Elevation
Unknown
Doppler factor
Unknown
Orbital elements
Apogee altitude
399.945 km
Perigee altitude
396.637 km
Semi-major axis
6,776.428 km
Eccentricity
0.00024
Inclination
53.0525°
RAAN
74.3928°
Arg. of periapsis
81.06°
True anomaly
279.04108°
Mean anomaly
279.0687°
Eccentric anomaly
279.05489°
Mean motion
3.89083 °/min
Orbital period
92.53 mins
BSTAR
0.00095783
Loading maneuver chart data...
Computing Atmospheric mass density...
Loading historical data...
Loading historical data...
Loading historical data...
Loading historical data...
Loading historical data...
Loading historical data...
Loading historical data...

Documentation

Showing up to 5 results
|